Location: Unspecified
(0.0000°N, 0.0000°E)
Time: 23:26:36
(UTC+00:00)

Hubble Space Telescope - Pass Details

Date: 16 July 2019
Orbit: 536 x 540 km, 28.5° (Epoch: 22 July)

Event Time Altitude Azimuth Distance (km) Brightness Sun altitude
Rises 19:18:57 0° 276° (W) 2,672 5.8 -16.9°
Reaches altitude 10° 19:21:35 10° 261° (W) 1,784 4.3 -17.5°
Maximum altitude 19:24:50 22° 209° (SSW) 1,192 2.6 -18.3°
Enters shadow 19:26:22 18° 178° (S) 1,348 2.6 -18.6°
